Bennington, VT

11:18 PM EST on December 11, 2019 (GMT -0500)
Morse State

Weather History for KDDH - September, 2019

Change the Weather History Date:

Monday, September 16, 2019

  Actual Average Record
Temperature  
Mean Temperature 57 °F 59 °F  
Max Temperature 69 °F 71 °F 86 °F (2018)
Min Temperature 45 °F 47 °F 35 °F (2001)
Degree Days  
Heating Degree Days 8 7  
Month to date heating degree days 84 74  
Since 1 July heating degree days 119 146  
Cooling Degree Days 0 1  
Month to date cooling degree days 12 20  
Year to date cooling degree days 363 308  
Growing Degree Days 7 (Base 50)    
Moisture  
Dew Point 49 °F    
Average Humidity 69    
Maximum Humidity 93    
Minimum Humidity 45    
Precipitation  
Precipitation 0.00 in 0.12 in 2.79 in (1999)
Month to date precipitation 1.53 1.74  
Year to date precipitation 29.00 29.28  
Sea Level Pressure  
Sea Level Pressure 30.09 in    
Wind  
Wind Speed 4 mph (NW)    
Max Wind Speed 12 mph    
Max Gust Speed 17 mph    
Visibility 10 miles    
Events      
T = Trace of Precipitation, MM = Missing Value Source: NWS Daily Summary

Daily Weather History Graph

Daily Weather History Graph

Search for Another Location

Airport or City:

Astronomy

Sep. 16, 2019 Rise Set
Actual Time 6:33 AM EDT 7:01 PM EDT
Civil Twilight 6:05 AM EDT 7:29 PM EDT
Nautical Twilight 5:31 AM EDT 8:03 PM EDT
Astronomical Twilight 4:56 AM EDT 8:37 PM EDT
Moon 8:32 PM EDT (9/16) 8:40 AM EDT (9/16)
Length of Visible Light 13h 24m
Length of Day
12h 28m
Waning Gibbous, 94% of the Moon is Illuminated
Sep 16
Waning Gibbous
Sep 21
Last Quarter
Sep 28
New
Oct 5
First Quarter
Oct 13
Full

Hourly Weather History & Observations

Time (EDT) Temp. Dew Point Humidity Pressure Visibility Wind Dir Wind Speed Gust Speed Precip Events Conditions
12:54 AM 62.1 °F 57.0 °F 84% 30.06 in 10.0 mi Calm Calm - N/A   Overcast
1:24 AM 62.1 °F 55.9 °F 80% 30.08 in 10.0 mi WSW 8.1 mph - N/A   Overcast
1:54 AM 62.1 °F 55.9 °F 80% 30.07 in 10.0 mi NW 4.6 mph - N/A   Overcast
2:54 AM 61.0 °F 52.0 °F 72% 30.07 in 10.0 mi WNW 4.6 mph - N/A   Overcast
3:54 AM 60.1 °F 52.0 °F 75% 30.07 in 10.0 mi NW 3.5 mph - N/A   Overcast
5:54 AM 55.0 °F 48.9 °F 80% 30.09 in 10.0 mi Calm Calm - N/A   Scattered Clouds
6:54 AM 50.0 °F 48.0 °F 93% 30.11 in 10.0 mi Calm Calm - N/A   Clear
7:54 AM 57.0 °F 48.9 °F 74% 30.11 in 10.0 mi Calm Calm - N/A   Clear
8:54 AM 59.0 °F 48.0 °F 67% 30.12 in 10.0 mi NNW 4.6 mph - N/A   Clear
9:54 AM 60.1 °F 46.9 °F 62% 30.12 in 10.0 mi Variable 4.6 mph - N/A   Scattered Clouds
10:08 AM 60.1 °F 48.0 °F 64% 30.13 in 10.0 mi North 3.5 mph - N/A   Mostly Cloudy
10:34 AM 62.1 °F 48.0 °F 60% 30.12 in 10.0 mi NE 3.5 mph - N/A   Scattered Clouds
10:54 AM 62.1 °F 48.0 °F 60% 30.12 in 10.0 mi Variable 3.5 mph - N/A   Scattered Clouds
11:54 AM 64.9 °F 45.0 °F 48% 30.10 in 10.0 mi NW 9.2 mph - N/A   Clear
12:54 PM 64.9 °F 45.0 °F 48% 30.08 in 10.0 mi NNW 8.1 mph - N/A   Clear
1:54 PM 66.0 °F 46.0 °F 48% 30.07 in 10.0 mi NNW 6.9 mph - N/A   Clear
2:54 PM 66.9 °F 46.0 °F 47% 30.06 in 10.0 mi NNW 8.1 mph - N/A   Clear
3:54 PM 68.0 °F 46.9 °F 47% 30.05 in 10.0 mi Variable 6.9 mph - N/A   Clear
4:54 PM 68.0 °F 46.9 °F 47% 30.05 in 10.0 mi North 5.8 mph - N/A   Clear
5:54 PM 66.9 °F 48.0 °F 51% 30.05 in 10.0 mi NW 3.5 mph - N/A   Clear
6:54 PM 57.9 °F 50.0 °F 75% 30.06 in 10.0 mi South 3.5 mph - N/A   Clear
7:54 PM 54.0 °F 50.0 °F 86% 30.07 in 10.0 mi South 3.5 mph - N/A   Clear
8:54 PM 51.1 °F 48.0 °F 89% 30.08 in 10.0 mi Calm Calm - N/A   Clear
9:54 PM 48.9 °F 46.9 °F 93% 30.10 in 10.0 mi Calm Calm - N/A   Clear
10:54 PM 46.9 °F 44.1 °F 90% 30.11 in 10.0 mi Calm Calm - N/A   Clear
11:54 PM 46.0 °F 44.1 °F 93% 30.12 in 10.0 mi Calm Calm - N/A   Clear